Location: Unspecified
(0.0000°N, 0.0000°E)
Time: 17:54:30
(UTC+00:00)

STARLINK-5741 - Pass Details

Date: 21 January 2026
Orbit: 558 x 560 km, 43.0° (Epoch: 9 February)

Event Time Altitude Azimuth Distance (km) Brightness Sun altitude
Rises 19:59:54 0° 322° (NW) 2,719 7.4 -25.4°
Reaches altitude 10° 20:02:11 10° 325° (NW) 1,827 6.4 -25.9°
Enters shadow 20:02:51 14° 327° (NNW) 1,568 6.0 -26.1°
